Weather in Katerynivka

Ukraine / Luhansk Region     48°39′53″N   38°28′18″E
temp.,
°C
wind,
m/s
gust,
m/s
humid.,
%
clouds,
%
prec.,
mm/h
press.,
hPa
HPBL,
m
16 may, sun
sun1600:00+16nnw22693 0.0 101311
03:00+15ne22750 0.0 101311
06:00+16nne22790 0.0 101249
09:00+22ene456429 0.1 1012483
12:00+26ene455255 0.0 10111335
15:00+28e6651100 0.0 10091908
18:00+24ese61056100 0.0 1008532
21:00+18ene357118 0.0 100763
17 may, mon
mon1700:00+17e4146667 0.0 1007270
03:00+15e4156586 0.0 1006305
06:00+15ese615625 0.0 1006387
09:00+20ese812525 0.0 1006606
12:00+25se68495 0.0 10061037
15:00+25sse675592 0.0 10061296
18:00+22s6106661 0.0 1007635
21:00+18s3682100 0.0 1008144
18 may, tue
tue1800:00+16ssw4884100 0.0 1008202
03:00+15wsw259199 0.0 1008126
06:00+16sw358896 0.0 1009184
09:00+18wsw3478100 0.1 1008385
12:00+18wsw337499 0.0 1008488
15:00+22s4561100 0.3 10071277
18:00+20ssw577017 1.5 10071096
21:00+15ssw5128326 1.5 1008366
19 may, wed
wed1900:00+13s4118927 0.0 1008310
03:00+12s4119690 0.0 1008329
06:00+14s389089 0.0 1008375
09:00+15s5876100 0.0 1008739
12:00+18ssw81057100 0.1 10081631
15:00+18ssw8105972 0.2 10081636
18:00+15ssw7107764 0.7 1009953
21:00+12sw6128588 0.8 1010681
20 may, thu
thu2000:00+13sw61284100 0.0 1010885
03:00+13sw61288100 0.4 1011893
06:00+12wsw61088100 0.1 1013636
09:00+15wsw797455 0.1 1014923
12:00+20w685249 0.0 10151461
15:00+21w564483 0.0 10151735
18:00+21wsw12460 0.0 10151477
21:00+16ese226057 0.0 101611